Location: Viterbo
(42.4170°N, 12.1000°E)
Time: 07:17:59
(UTC+01:00)

ISS - Visible Passes

Search period start: 19 February 2019 00:00
Search period end: 01 March 2019 00:00
Orbit: 403 x 411 km, 51.6° (Epoch: 19 February)

Date Brightness Start Highest point End Pass type
(mag) Time Alt. Az. Time Alt. Az. Time Alt. Az.
22 Feb -0.7 05:49:13 10° SSE 05:50:48 13° SE 05:52:24 10° ESE visible
24 Feb -2.1 05:41:06 10° SSW 05:44:01 31° SE 05:46:57 10° ENE visible
25 Feb -1.3 04:51:54 16° SSE 04:52:40 17° SE 04:54:53 10° E visible
25 Feb -3.7 06:25:40 10° WSW 06:28:54 59° NNW 06:32:08 10° NE visible
26 Feb -3.8 05:35:38 26° SW 05:37:21 77° SE 05:40:37 10° ENE visible
27 Feb -2.3 04:46:29 36° ESE 04:46:29 36° ESE 04:48:58 10° ENE visible
27 Feb -2.8 06:19:29 10° W 06:22:27 31° NNW 06:25:26 10° NE visible
28 Feb -3.4 05:29:55 36° WNW 05:30:47 47° NNW 05:33:58 10° NE visible
